Location: Altenhof
(50.2418°N, 10.8789°E)
Time: 16:37:26
(UTC+00:00)

Cosmos 2061 Rocket - Pass Details

Date: 18 February 2020
Orbit: 965 x 1014 km, 82.9° (Epoch: 29 March)

Event Time Altitude Azimuth Distance (km) Brightness Sun altitude
Rises 05:29:20 0° 347° (NNW) 3,718 6.8 -9.2°
Reaches altitude 10° 05:31:57 10° 342° (NNW) 2,758 6.1 -8.8°
Maximum altitude 05:38:00 51° 269° (W) 1,215 4.2 -7.9°
Drops below altitude 10° 05:43:58 10° 195° (SSW) 2,710 6.3 -6.9°
Sets 05:46:31 0° 191° (S) 3,648 7.0 -6.5°
